Terug naar catalogus

SL-8 R/B

ActiefLEO
NORAD 5615·ROCKET BODY·🇷🇺 Russia

Gelanceerd Nov 20, 1971 vanaf Plesetsk Cosmodrome

Loading…

Volgende Passages (komende 24 uur)

TLE

VersSource: Space-Track

Epoch: Sep 14, 2026, 16:47 UTC

1 05615U 71099B   26257.69986097  .00000238  00000-0  66042-3 0  9993
2 05615  74.0339 148.9620 0022436   1.7336  25.7458 13.17684457636486

Volg SL-8 R/B in realtime met AllMySat

Download on the App Store